Regional Weather Roundup
Issued by NWS Kansas City/Pleasant Hill, MO

Home | Current Version | Previous Version | Graphics & Text | Print | Product List | Glossary Off
Versions: 1 2 3 4 5 6 7 8 9 10 11 12 13 14 15 16 17 18 19 20 21 22 23 24 25 26 27 28 29 30 31 32 33 34 35 36 37 38 39 40 41 42 43 44 45 46 47 48 49 50

000
ASUS43 KEAX 181604
RWREAX

WEATHER ROUNDUP FOR EASTERN KANSAS AND NORTHWEST MISSOURI
NATIONAL WEATHER SERVICE KANSAS CITY/PLEASANT HILL MO
1100 AM CDT THU SEP 18 2014

KSZ040-057-103>105-MOZ028-029-037-043-181700-
...KANSAS CITY METROPOLITAN AREA...

CITY           SKY/WX    TMP DP  RH WIND       PRES   REMARKS
K.C. INTL      CLOUDY    62  59  90 E13       30.04S
K.C. DOWNTOWN  CLOUDY    65  60  84 E8        30.03R
LEES SUMMIT    CLOUDY    63  60  90 E8        30.04S
OLATHE - IXD   CLOUDY    64  62  93 E8        30.04R FOG
OLATHE - OJC   CLOUDY    62  61  96 E7        30.03R FOG
LAWRENCE       CLOUDY    64  60  87 E7        30.03S FOG

$$

MOZ001>008-011>017-020>025-030>033-038>040-044>046-053-054-181700-
...NORTHERN AND CENTRAL MISSOURI...

CITY           SKY/WX    TMP DP  RH WIND       PRES   REMARKS
ST. JOSEPH     CLOUDY    61  58  90 SE12      30.06R
MOSBY          CLOUDY    63  61  94 E6        30.05S
WHITEMAN AFB   NOT AVBL
CLINTON        CLOUDY    64  64 100 NE12      30.02F FOG
SEDALIA        CLOUDY    62  60  93 E9        30.05S FOG
WARSAW         NOT AVBL
MARSHALL       CLOUDY    64  63  94 E9        30.06F FOG
CHILLICOTHE      N/A     63  56  78 VRB5      30.08S
KIRKSVILLE     PTSUNNY   63  57  81 E10       30.10S

$$

MOZ041-047>049-056>058-063>065-088>090-097-181700-
...EASTERN AND SOUTHERN MISSOURI...

CITY           SKY/WX    TMP DP  RH WIND       PRES   REMARKS
ST. LOUIS INTL CLOUDY    66  55  67 E7        30.09S
SPIRIT OF STL  CLOUDY    66  56  70 E9        30.07S
COLUMBIA       CLOUDY    63  61  93 E9        30.07S FOG
JEFFERSON CITY CLOUDY    64  59  83 E8        30.06S
MEXICO         CLOUDY    68  63  83 SE7       30.08S
ROLLA          CLOUDY    61  58  90 E10       30.05S
LEBANON        CLOUDY    64  61  88 E7        30.04S
OSAGE BEACH    CLOUDY    64  59  82 E8        30.04S
SPRINGFIELD    CLOUDY    69  63  81 NE9       29.99R
BRANSON        CLOUDY    64  64 100 MISG      30.03R
NEVADA         CLOUDY    70  64  83 N5        30.01S
JOPLIN         CLOUDY    67  63  87 NE9       29.96F
WEST PLAINS    CLOUDY    61  59  93 SE6       30.05R FOG

$$

IAZ060-094-KSZ022-034>040-054-083-096-NEZ052-066-093-181700-
...KANSAS...SOUTHEAST NEBRASKA AND IOWA...

CITY           SKY/WX    TMP DP  RH WIND       PRES   REMARKS
TOPEKA         CLOUDY    67  64  90 E9        30.03R FOG
MANHATTAN      CLOUDY    69  65  86 SE5       30.01R
EMPORIA        CLOUDY    64  64 100 CALM      30.00F
CHANUTE        CLOUDY    66  64  93 NW3       30.00R
WICHITA        PTSUNNY   73  59  61 S18       30.01R
OMAHA          MOSUNNY   68  58  70 SE8       30.04S
LINCOLN        MOSUNNY   69  61  75 SE9       30.03S
FALLS CITY     CLOUDY    64  61  90 SE6       30.03R
LAMONI         HAZE      61  56  83 E10G18    30.07S VSB 1
DES MOINES     CLOUDY    60  58  92 VRB6      30.09F FOG

$$




USA.gov is the U.S. government's official web portal to all federal, state and local government web resources and services.